ISS (ZARYA) (25544 NORAD) Tracking and Keplerian Element Data

This shows tracking and keplerian element data for the satellite.

Feedback or suggestion? Click here.




ElementValue
Catalog25544
NameISS (ZARYA)
Epoch Orbit25157
Epoch Day295.35963795
Epoch Year2020
RAAN84.1588
Inclination51.6443
Eccentricity0.0001466
Argument of Perigee49.7675
Mean Anonmoly151.3038
Mean Motion15.49319521
Decay Rate9.1E-06
L11 25544U 98067A 20295.35963795 .00000910 00000-0 24407-4 0 9996
L22 25544 51.6443 84.1588 0001466 49.7675 151.3038 15.49319521251575

Live tracking and technical data element details for ISS (ZARYA) (NORAD 25544). ISS (ZARYA) can be tracked NOW for your location showing map with azimuth and elevation plus other details from your city location.

Track the satellite on the map from your city or location and see movement details for azimuth, elevation, latitude, longitude, range, height, and movement on the map or in text.







IsCatalogInMostPopularTable: catalog: 25544, numindb: 58654
Update: records affected: 2



GetName: 25544 ISS (ZARYA)

Hit Count: updated at: Thu, 22 Oct 2020 03:30:21 GMT